Location: Newark
(48.9233°N, 29.3439°E)
Time: 04:36:11
(UTC+00:00)

Envisat - Pass Details

Date: 30 September 2019
Orbit: 764 x 766 km, 98.1° (Epoch: 22 October)

Event Time Altitude Azimuth Distance (km) Brightness Sun altitude
Rises 16:32:02 0° 181° (S) 3,220 6.2 -8.6°
Reaches altitude 10° 16:34:25 10° 187° (S) 2,298 5.5 -9.0°
Maximum altitude 16:39:18 48° 261° (W) 1,002 4.2 -9.8°
Drops below altitude 10° 16:44:14 10° 336° (NNW) 2,314 5.9 -10.6°
Sets 16:46:38 0° 342° (NNW) 3,245 6.6 -11.0°
